Regional Weather Roundup
Issued by NWS

Home | Current Version | Previous Version | Text Only | Print | Product List | Glossary Off
Versions: 1 2 3 4 5 6 7 8 9 10 11 12 13 14 15 16 17 18 19 20 21 22 23 24 25 26 27 28 29 30 31 32 33 34 35 36 37 38 39 40 41 42 43 44 45 46 47 48 49 50

000
ASUS43 KMKX 272321
RWRWI

WISCONSIN REGIONAL WEATHER ROUNDUP
NATIONAL WEATHER SERVICE MILWAUKEE/SULLIVAN WI
600 PM CDT SUN JUL 27 2014

NOTE: "FAIR" INDICATES FEW OR NO CLOUDS BELOW 12,000 FEET WITH NO
SIGNIFICANT WEATHER AND/OR OBSTRUCTIONS TO VISIBILITY.

WIZ001-002-006>008-014>016-023>028-280000-
NORTHWEST WISCONSIN

CITY           SKY/WX    TMP DP  RH WIND       PRES   REMARKS
SUPERIOR ARPT  CLOUDY    61  55  79 NW5       30.06S
ASHLAND        CLOUDY    62  53  72 NW3       30.04R
HAYWARD        SUNNY     63  52  67 NE12G21   30.04R
SIREN          CLOUDY    66  55  68 NE9       30.04R
RICE LAKE      CLOUDY    64  54  68 N15       30.04R
LADYSMITH      CLOUDY    63  55  74 N13       30.02R
EAU CLAIRE     PTSUNNY   72  58  61 N16G26    29.95R
MENOMONIE      PTCLDY    71  56  59 N21       29.98R
NEW RICHMOND   PTSUNNY   68  56  66 N13G23    30.01R
OSCEOLA        PTSUNNY   69  60  71 N13G21    30.04R
$$

WIZ003>005-009-010-017-018-280000-
NORTH CENTRAL WISCONSIN

CITY           SKY/WX    TMP DP  RH WIND       PRES   REMARKS
WOODRUFF       CLOUDY    61  55  81 N10G17    29.98R
RHINELANDER    MOSUNNY   60  52  74 N10G21    29.96R
EAGLE RIVER    PTSUNNY   61  50  66 N9G18     29.96R
LAND O LAKES   MOSUNNY   63  50  63 NE10G23   29.97R
PHILLIPS       CLOUDY    62  54  75 N13G20    29.99R
TOMAHAWK       CLOUDY    61  53  76 N10G18    29.97R
MEDFORD        MOSUNNY   65  58  77 N17G24    29.94R
MERRILL        PTSUNNY   63  57  81 NE17G24   29.93R
$$

WIZ029-030-035-036-043>047-280000-
CENTRAL WISCONSIN

CITY           SKY/WX    TMP DP  RH WIND       PRES   REMARKS
WAUSAU         MOSUNNY   66  58  75 N14G22    29.89R
MOSINEE        PTSUNNY   68  61  77 N16G23    29.89R
MARSHFIELD     CLOUDY    68  59  73 N12       29.90R
STEVENS POINT  CLOUDY    65  59  80 N10G16    29.88R
WAUPACA        RAIN      70  63  78 N10G18    29.85R
WAUTOMA        PTSUNNY   73  60  63 N12       29.85R
WISC RAPIDS    MOSUNNY   68  61  78 MISG      29.88R
CAMP DOUGLAS   DRIZZLE   70  66  88 VRB3      29.89R
$$

WIZ011>013-019>022-031-037>040-048>050-280000-
NORTHEAST WISCONSIN

CITY           SKY/WX    TMP DP  RH WIND       PRES   REMARKS
ANTIGO         CLOUDY    61  56  82 N15G26    29.92R
STURGEON BAY   CLOUDY    63  55  77 N20G26    29.83R
GREEN BAY      PTSUNNY   70  61  73 N23G30    29.81R
MANITOWOC      CLOUDY    65  62  90 N9G18     29.80R
APPLETON       PTSUNNY   70  59  68 N15G22    29.82R
CLINTONVILLE   CLOUDY    68  55  64 N12G21    29.85R
OSHKOSH        PTSUNNY   71  60  68 N15G22    29.82R
$$

WIZ032>034-041-042-053>061-280000-
SOUTHWEST WISCONSIN

CITY           SKY/WX    TMP DP  RH WIND       PRES   REMARKS
LA CROSSE      MOSUNNY   75  62  64 NW15      29.90R
SPARTA         MOSUNNY   70  62  75 NW9       29.90R
VIROQUA        FAIR      72  60  66 N13G23    29.91R
BOSCOBEL       PTSUNNY   79  60  52 NW8G20    29.88R HX  80
PRAIRIE DU CHI MOSUNNY   76  55  49 NW15G21   29.89R
PLATTEVILLE    PTSUNNY   74  57  56 NW13G22   29.89R
$$

WIZ056-057-062-063-064-067-068-280000-
SOUTH CENTRAL WISCONSIN

CITY           SKY/WX    TMP DP  RH WIND       PRES   REMARKS
BARABOO/DELLS  MOSUNNY   70  61  73 NW9       29.86R
LONE ROCK      PTSUNNY   78  61  55 NW18      29.86R HX  80
WATERTOWN      MOSUNNY   73  59  61 NW16G25   29.79R
MADISON        PTSUNNY   74  60  61 NW13G23   29.82R
MIDDLETON      FAIR      74  61  64 NW15      29.83S
MONROE         MOSUNNY   73  55  53 NW13G21   29.84R
JANESVILLE     PTSUNNY   68  61  77 NW13      29.81R
$$

WIZ051-052-058>065-066-070>072-280000-
SOUTHEAST WISCONSIN

CITY           SKY/WX    TMP DP  RH WIND       PRES   REMARKS
MILWAUKEE      PTSUNNY   69  62  78 NW12      29.77R
WAUKESHA       NOT AVBL
MILWAUKEE/TIMM MOSUNNY   68  61  77 NW9       29.77R
RACINE         CLOUDY    70  59  68 N12       29.78R
BURLINGTON     MOSUNNY   73  56  56 NW13G18   29.78R
KENOSHA        PTSUNNY   73  60  63 NW13G23   29.77R
FOND DU LAC    PTSUNNY   70  60  70 N13G23    29.81R
SHEBOYGAN      PTSUNNY   67  60  78 NE8       29.78R
WEST BEND      PTSUNNY   68  59  73 NW12G22   29.78R
JUNEAU         PTSUNNY   69  58  69 NW10      29.82R
$$

LSZ147-162-280000-
LAKE SUPERIOR

STATION/POSITION TIME  TEMP    WIND        PRES    WAVE
                       AIR SEA DIR/SP/G            HT/PER
                 (UTC) (F)     (DEG/KT/KT) (MB)    (FT/S)
W MID LAKE BUOY  2250   48 42  280/  6/  8 1015.8R   1/ 4
PORT WING        2200   60      30/  3/  5 1016.9
SAXON HARBOR     2200           20/  3/  6 1016.3R
$$

LMZ867-665-643>646-280000-
LAKE MICHIGAN

STATION/POSITION TIME  TEMP    WIND        PRES    WAVE
                       AIR SEA DIR/SP/G            HT/PER
                 (UTC) (F)     (DEG/KT/KT) (MB)    (FT/S)
N MID LAKE BUOY  2250   60 55  360/ 19/ 23 1007.7R   3/ 4
NORTHPORT PIER   2200   63     350/ 26/ 31 1008.5R
KEWAUNEE LAKESHO 2300   64     360/ 12/ 18 1009.9R
SHEBOYGAN LAKESH 2300   58     360/ 10/ 12 1008.5R
PORT WASHINGTON  2240   73     340/  8/ 14 1008.1R
ATWATER BUOY     2300   60     310/  6     1009.0R
MILWAUKEE LAKESH 2300   69     300/  8/ 12   N/A
S MID LAKE BUOY  2250   65 62  310/ 17/ 19 1006.8R   2/ 4
KENOSHA   LAKESH 2300   74     310/ 13/ 22 1007.5R
$$

TC  - TEMPERATURE IN CELSIUS
VSB - VISIBILITY IN STATUTE MILES
WCI - WIND CHILL INDEX
HX  - HEAT INDEX




USA.gov is the U.S. government's official web portal to all federal, state and local government web resources and services.